Regional Weather Roundup
Issued by NWS Sioux Falls, SD

Home | Current Version | Previous Version | Text Only | Print | Product List | Glossary On
Versions: 1 2 3 4 5 6 7 8 9 10 11 12 13 14 15 16 17 18 19 20 21 22 23 24 25 26 27 28 29 30 31 32 33 34 35 36 37 38 39 40 41 42 43 44 45 46 47 48 49 50
957
ASUS43 KFSD 242302
RWRFSD

WEATHER ROUNDUP FOR SE SOUTH DAKOTA/SW MINNESOTA/NW IOWA
NATIONAL WEATHER SERVICE SIOUX FALLS SD
600 PM CDT MON APR 24 2017

NOTE: "FAIR" INDICATES FEW OR NO CLOUDS BELOW 12,000 FEET WITH NO
SIGNIFICANT WEATHER AND OR OBSTRUCTIONS TO VISIBILITY.


SDZ038>040-050-052>070-250000-
SOUTHEAST SOUTH DAKOTA

CITY           SKY/WX    TMP DP  RH WIND       PRES   REMARKS
BROOKINGS      CLOUDY    59  44  57 W22       29.50R
CHAMBERLAIN    MOSUNNY   55  42  62 W13       29.57S
HURON          PTSUNNY   57  41  55 NW14      29.53S
MADISON        FAIR      59  45  58 W18       29.51R
MITCHELL       MOSUNNY   59  42  53 NW16      29.53S
SIOUX FALLS    CLOUDY    67  45  45 SW7       29.49S
WINNER         FAIR      57  41  55 N13G22    29.57S
YANKTON        MOSUNNY   64  43  45 NW15      29.48S
$$

MNZ071-072-080-081-089-090-097-098-250000-
SOUTHWEST MINNESOTA

CITY           SKY/WX    TMP DP  RH WIND       PRES   REMARKS
FAIRMONT       CLOUDY    68  33  27 S16       29.55F
JACKSON        CLOUDY    68  32  26 S15       29.55F
LUVERNE        CLOUDY    64  36  34 S18       29.50S
MARSHALL       CLOUDY    67  40  37 S12       29.50F
MONTEVIDEO     PTSUNNY   66  37  34 SW9       29.50S
PIPESTONE      CLOUDY    64  37  36 SW8       29.50S
REDWOOD FALLS  CLOUDY    66  39  37 S10       29.51F
TRACY          CLOUDY    68  39  34 S15G21    29.51F
WINDOM         CLOUDY    66  32  28 S16G28    29.53S
WORTHINGTON    CLOUDY    66  38  35 S20       29.53S
$$

IAZ001>003-012>014-020>022-031-032-NEZ013-014-SDZ071-250000-
NORTHWEST IOWA

CITY           SKY/WX    TMP DP  RH WIND       PRES   REMARKS
CHEROKEE       CLOUDY    67  40  36 S10G23    29.52F
DENISON        SUNNY     73  39  29 S21G31    29.54S
ESTHERVILLE    CLOUDY    67  33  28 S14       29.54F
LE MARS        CLOUDY    70  43  37 SW13G20   29.50S
ORANGE CITY    CLOUDY    70  43  37 SW16      29.51F
SHELDON        CLOUDY    68  37  32 S16       29.50F
SIOUX CITY     CLOUDY    73  42  32 S17       29.49F
SPENCER        CLOUDY    68  37  32 S14       29.53F
STORM LAKE     CLOUDY    70  36  28 S23G30    29.53F
$$

ABBREVIATIONS USED IN REMARKS
   TC - TEMPERATURE IN CELSIUS
  WCI - WIND CHILL INDEX
   HX - HEAT INDEX
  VSB - VISIBILITY





USA.gov is the U.S. government's official web portal to all federal, state and local government web resources and services.